When you browse on this site, cookies collect data to enhance your experience and personalize the content and advertising you see.
Visit our Privacy Policy to learn more. By continuing to use the site, you agree to this use of cookies and data.
  • In Czech Republic
  • List of Countries
  • For 7 days
  • Water Temperature
  • Weather Map
  • Weather Widgets
  • user-avatar
    Login

    Hourly Weather Batina

    Today, 18 October, Friday

    Time Temperature Precipitation Wind Pressure Humidity
    00:00 +17°C° 0 mm 2 mps 673 mmHg 71%
    01:00 +17°C° 0 mm 2 mps 672 mmHg 73%
    02:00 +17°C° 0 mm 2 mps 672 mmHg 74%
    03:00 +17°C° 0 mm 2 mps 672 mmHg 76%
    04:00 +16°C° 0 mm 1 mps 672 mmHg 78%
    05:00 +16°C° 0 mm 1 mps 672 mmHg 79%
    06:00 +16°C° 0 mm 1 mps 672 mmHg 81%
    07:00 +18°C° 0 mm 1 mps 673 mmHg 72%
    08:00 +20°C° 0 mm 1 mps 673 mmHg 63%
    09:00 +22°C° 0 mm 1 mps 674 mmHg 55%
    10:00 +23°C° 0 mm 2 mps 674 mmHg 51%
    11:00 +24°C° 0 mm 3 mps 674 mmHg 48%
    12:00 +24°C° 0 mm 3 mps 674 mmHg 44%
    13:00 +23°C° 0.2 mm 4 mps 673 mmHg 45%
    14:00 +23°C° 0.2 mm 4 mps 673 mmHg 45%
    15:00 +23°C° 0.2 mm 4 mps 673 mmHg 45%
    16:00 +22°C° 0 mm 3 mps 672 mmHg 49%
    17:00 +21°C° 0 mm 2 mps 672 mmHg 54%
    18:00 +20°C° 0 mm 2 mps 672 mmHg 58%
    19:00 +19°C° 0 mm 2 mps 672 mmHg 61%
    20:00 +20°C° 0 mm 1 mps 672 mmHg 64%
    21:00 +19°C° 0 mm 1 mps 672 mmHg 67%
    22:00 +19°C° 0 mm 1 mps 672 mmHg 68%
    23:00 +19°C° 0 mm 1 mps 672 mmHg 70%

    Tomorrow, 19 October, Saturday

    Time Temperature Precipitation Wind Pressure Humidity
    00:00 +18°C° 0 mm 1 mps 672 mmHg 71%
    01:00 +18°C° 0 mm 1 mps 671 mmHg 71%
    02:00 +17°C° 0 mm 2 mps 671 mmHg 72%
    03:00 +16°C° 0 mm 2 mps 671 mmHg 73%
    04:00 +16°C° 0 mm 2 mps 671 mmHg 74%
    05:00 +16°C° 0 mm 2 mps 670 mmHg 76%
    06:00 +16°C° 0 mm 2 mps 670 mmHg 78%
    07:00 +18°C° 0 mm 3 mps 671 mmHg 69%
    08:00 +19°C° 0 mm 3 mps 672 mmHg 61%
    09:00 +21°C° 0 mm 4 mps 673 mmHg 53%
    10:00 +22°C° 0 mm 4 mps 673 mmHg 49%
    11:00 +23°C° 0 mm 5 mps 672 mmHg 46%
    12:00 +24°C° 0 mm 6 mps 672 mmHg 43%
    13:00 +24°C° 0 mm 6 mps 672 mmHg 43%
    14:00 +23°C° 0 mm 5 mps 671 mmHg 43%
    15:00 +23°C° 0 mm 5 mps 671 mmHg 43%
    16:00 +22°C° 0 mm 4 mps 671 mmHg 47%
    17:00 +21°C° 0 mm 3 mps 671 mmHg 51%
    18:00 +20°C° 0 mm 2 mps 670 mmHg 55%
    19:00 +19°C° 0 mm 2 mps 671 mmHg 57%
    20:00 +19°C° 0 mm 2 mps 671 mmHg 58%
    21:00 +18°C° 0 mm 2 mps 671 mmHg 60%
    22:00 +18°C° 0 mm 2 mps 671 mmHg 60%
    23:00 +18°C° 0 mm 2 mps 671 mmHg 61%

    Day after tomorrow, 20 October, Sunday

    Time Temperature Precipitation Wind Pressure Humidity
    00:00 +17°C° 0 mm 2 mps 671 mmHg 61%
    01:00 +17°C° 0 mm 2 mps 670 mmHg 62%
    02:00 +17°C° 0 mm 2 mps 670 mmHg 63%
    03:00 +17°C° 0 mm 2 mps 670 mmHg 63%
    04:00 +16°C° 0 mm 2 mps 670 mmHg 64%
    05:00 +16°C° 0 mm 2 mps 670 mmHg 64%
    06:00 +16°C° 0 mm 2 mps 670 mmHg 65%
    07:00 +18°C° 0 mm 2 mps 671 mmHg 57%
    08:00 +20°C° 0 mm 2 mps 672 mmHg 50%
    09:00 +23°C° 0 mm 2 mps 672 mmHg 43%
    10:00 +24°C° 0 mm 3 mps 672 mmHg 40%
    11:00 +24°C° 0 mm 3 mps 672 mmHg 38%
    12:00 +25°C° 0 mm 3 mps 672 mmHg 35%
    13:00 +25°C° 0 mm 3 mps 672 mmHg 35%
    14:00 +25°C° 0 mm 3 mps 672 mmHg 35%
    15:00 +25°C° 0 mm 4 mps 672 mmHg 36%
    16:00 +24°C° 0 mm 3 mps 671 mmHg 40%
    17:00 +21°C° 0 mm 2 mps 671 mmHg 45%
    18:00 +20°C° 0 mm 2 mps 671 mmHg 50%
    19:00 +19°C° 0 mm 2 mps 671 mmHg 52%
    20:00 +20°C° 0 mm 1 mps 671 mmHg 54%
    21:00 +19°C° 0 mm 1 mps 671 mmHg 56%
    22:00 +19°C° 0 mm 1 mps 671 mmHg 56%
    23:00 +19°C° 0 mm 1 mps 671 mmHg 56%

    21 October, Monday

    Time Temperature Precipitation Wind Pressure Humidity
    00:00 +18°C° 0 mm 1 mps 670 mmHg 56%
    01:00 +18°C° 0 mm 1 mps 670 mmHg 56%
    02:00 +17°C° 0 mm 2 mps 670 mmHg 56%
    03:00 +17°C° 0 mm 2 mps 670 mmHg 56%
    04:00 +17°C° 0 mm 2 mps 670 mmHg 57%
    05:00 +18°C° 0 mm 1 mps 670 mmHg 58%
    06:00 +18°C° 0 mm 1 mps 670 mmHg 59%
    07:00 +18°C° 0 mm 2 mps 671 mmHg 54%
    08:00 +20°C° 0 mm 2 mps 672 mmHg 49%
    09:00 +23°C° 0 mm 2 mps 672 mmHg 43%
    10:00 +24°C° 0 mm 3 mps 672 mmHg 41%
    11:00 +25°C° 0 mm 3 mps 672 mmHg 38%
    12:00 +26°C° 0 mm 4 mps 672 mmHg 36%
    13:00 +26°C° 0.1 mm 4 mps 672 mmHg 37%
    14:00 +26°C° 0.1 mm 4 mps 671 mmHg 39%
    15:00 +26°C° 0.1 mm 4 mps 671 mmHg 40%
    16:00 +23°C° 0.5 mm 4 mps 671 mmHg 47%
    17:00 +22°C° 0.5 mm 4 mps 670 mmHg 53%
    18:00 +21°C° 0.5 mm 3 mps 670 mmHg 60%
    19:00 +20°C° 0.2 mm 3 mps 670 mmHg 61%
    20:00 +20°C° 0.2 mm 3 mps 670 mmHg 62%
    21:00 +19°C° 0.2 mm 2 mps 670 mmHg 63%
    22:00 +19°C° 0 mm 2 mps 670 mmHg 65%
    23:00 +18°C° 0 mm 2 mps 669 mmHg 66%

    22 October, Tuesday

    Time Temperature Precipitation Wind Pressure Humidity
    00:00 +18°C° 0 mm 2 mps 669 mmHg 68%
    01:00 +17°C° 0 mm 2 mps 669 mmHg 69%
    02:00 +17°C° 0 mm 2 mps 668 mmHg 70%
    03:00 +17°C° 0 mm 2 mps 668 mmHg 71%
    04:00 +16°C° 0 mm 2 mps 668 mmHg 73%
    05:00 +16°C° 0 mm 2 mps 667 mmHg 74%
    06:00 +16°C° 0 mm 2 mps 667 mmHg 76%
    07:00 +18°C° 0 mm 2 mps 668 mmHg 66%
    08:00 +20°C° 0 mm 2 mps 669 mmHg 57%
    09:00 +22°C° 0 mm 3 mps 669 mmHg 47%
    10:00 +25°C° 0 mm 4 mps 669 mmHg 42%
    11:00 +26°C° 0 mm 6 mps 669 mmHg 37%
    12:00 +27°C° 0 mm 8 mps 669 mmHg 31%
    13:00 +27°C° 0 mm 8 mps 669 mmHg 31%
    14:00 +27°C° 0 mm 8 mps 668 mmHg 31%
    15:00 +27°C° 0 mm 9 mps 668 mmHg 31%
    16:00 +24°C° 0 mm 8 mps 667 mmHg 36%
    17:00 +23°C° 0 mm 8 mps 667 mmHg 40%
    18:00 +22°C° 0 mm 8 mps 666 mmHg 45%
    19:00 +22°C° 0 mm 8 mps 666 mmHg 46%
    20:00 +22°C° 0 mm 8 mps 665 mmHg 48%
    21:00 +21°C° 0 mm 8 mps 665 mmHg 49%
    22:00 +21°C° 0 mm 9 mps 665 mmHg 49%
    23:00 +21°C° 0 mm 10 mps 665 mmHg 49%

    23 October, Wednesday

    Time Temperature Precipitation Wind Pressure Humidity
    00:00 +21°C° 0 mm 11 mps 664 mmHg 48%
    01:00 +21°C° 0 mm 11 mps 664 mmHg 51%
    02:00 +21°C° 0 mm 10 mps 664 mmHg 54%
    03:00 +19°C° 0 mm 10 mps 663 mmHg 57%
    04:00 +19°C° 0 mm 10 mps 663 mmHg 58%
    05:00 +18°C° 0 mm 11 mps 663 mmHg 59%
    06:00 +18°C° 0 mm 12 mps 663 mmHg 59%
    07:00 +19°C° 0 mm 14 mps 664 mmHg 51%
    08:00 +20°C° 0 mm 16 mps 664 mmHg 43%
    09:00 +20°C° 0 mm 17 mps 665 mmHg 35%
    10:00 +20°C° 0 mm 16 mps 665 mmHg 34%
    11:00 +20°C° 0 mm 15 mps 665 mmHg 34%
    12:00 +19°C° 0 mm 13 mps 665 mmHg 33%
    13:00 +18°C° 0 mm 12 mps 665 mmHg 35%
    14:00 +17°C° 0 mm 10 mps 665 mmHg 37%
    15:00 +17°C° 0 mm 9 mps 665 mmHg 39%
    16:00 +15°C° 0 mm 7 mps 665 mmHg 40%
    17:00 +14°C° 0 mm 6 mps 666 mmHg 42%
    18:00 +13°C° 0 mm 4 mps 666 mmHg 44%
    19:00 +12°C° 0 mm 3 mps 667 mmHg 47%
    20:00 +12°C° 0 mm 3 mps 667 mmHg 50%
    21:00 +12°C° 0 mm 2 mps 667 mmHg 53%
    22:00 +12°C° 0 mm 2 mps 667 mmHg 56%
    23:00 +10°C° 0 mm 3 mps 667 mmHg 58%
    Show more